This is the latest recevied weather packets stored in our database for station/object K9RJT. If no packets are shown the sender has not sent any weather packets the latest 10 day(s).
| Time | Temp. | Humidity | Pressure | Rain* | Wind** | Luminosity | Snow |
|---|---|---|---|---|---|---|---|
| 1777760461 | 24.44° C | 29% | 1008 hPa | 0 mm | - | 123 W/m² | - |
| 1777760156 | 24.44° C | 30% | 1008.2 hPa | 0 mm | - | 98 W/m² | - |
| 1777759854 | 25° C | 29% | 1008.1 hPa | 0 mm | - | 101 W/m² | - |
| 1777759549 | 25.56° C | 28% | 1008.1 hPa | 0 mm | - | 118 W/m² | - |
| 1777759246 | 25.56° C | 28% | 1008.1 hPa | 0 mm | - | 157 W/m² | - |
| 1777758944 | 25.56° C | 28% | 1008 hPa | 0 mm | - | 212 W/m² | - |
| 1777758640 | 25.56° C | 28% | 1008 hPa | 0 mm | - | 252 W/m² | - |
| 1777758337 | 25.56° C | 29% | 1007.7 hPa | 0 mm | - | 343 W/m² | - |
| 1777758035 | 25.56° C | 29% | 1007.9 hPa | 0 mm | - | 317 W/m² | - |
| 1777757731 | 25.56° C | 28% | 1008.1 hPa | 0 mm | - | 379 W/m² | - |
| 1777757430 | 25° C | 29% | 1008.1 hPa | 0 mm | - | 359 W/m² | - |
| 1777757128 | 25° C | 30% | 1008.2 hPa | 0 mm | - | 354 W/m² | - |
| 1777756826 | 25.56° C | 31% | 1008.2 hPa | 0 mm | - | 385 W/m² | - |
| 1777756521 | 25° C | 32% | 1008.2 hPa | 0 mm | - | 430 W/m² | - |
| 1777756218 | 25° C | 34% | 1008.2 hPa | 0 mm | - | 491 W/m² | - |
| 1777755915 | 25° C | 33% | 1008.5 hPa | 0 mm | - | 467 W/m² | - |
| 1777755612 | 25° C | 35% | 1008.6 hPa | 0 mm | - | 500 W/m² | - |
| 1777755309 | 24.44° C | 35% | 1008.7 hPa | 0 mm | - | 486 W/m² | - |
| 1777755006 | 24.44° C | 36% | 1008.8 hPa | 0 mm | - | 567 W/m² | - |
| 1777754703 | 23.89° C | 35% | 1008.9 hPa | 0 mm | - | 674 W/m² | - |
| 1777754401 | 24.44° C | 35% | 1008.8 hPa | 0 mm | - | 766 W/m² | - |
| 1777754097 | 23.89° C | 35% | 1009 hPa | 0 mm | - | 256 W/m² | - |
| 1777753794 | 23.89° C | 34% | 1009.2 hPa | 0 mm | - | 264 W/m² | - |
| 1777753490 | 23.89° C | 35% | 1009.1 hPa | 0 mm | - | 661 W/m² | - |
| 1777753189 | 23.89° C | 34% | 1009.4 hPa | 0 mm | - | 682 W/m² | - |
* Rain latest hour (hover to see other rain measurements)
** Current wind speed in m/s (hover to see current wind gust speed)